JZA7990 CYUL-CYDF

Flight info

Callsign JZA7990
Flight time N/A
Altitude 35000
Route SUXET DCT NOVUN DCT ESRAM DCT RABIK Q951 ANTOV DCT CROIX DCT OVIXI DCT USBAM DCT FROSS DCT YDF
Aircraft CRJ9/M-SDFGIRWY/S

Departure

Time N/A
Airport Montreal / Pierre Elliott Trudeau International Airport (CYUL)

Arrival

Time 2026-04-25 01:51
Airport Deer Lake Airport (CYDF)
Time Latitude Longitude Altitude Speed Heading
2026-04-25 00:25 45.64013 -70.37290 32797 ft 442 kts 57°
2026-04-25 00:26 45.65301 -70.33283 32924 ft 443 kts 57°
2026-04-25 00:26 45.66571 -70.29331 33087 ft 442 kts 58°
2026-04-25 00:26 45.67854 -70.25327 33278 ft 442 kts 59°
2026-04-25 00:26 45.69134 -70.21313 33412 ft 442 kts 58°
2026-04-25 00:27 45.70413 -70.17311 33526 ft 443 kts 58°
2026-04-25 00:27 45.71689 -70.13303 33660 ft 442 kts 58°
2026-04-25 00:27 45.72967 -70.09294 33809 ft 442 kts 58°
2026-04-25 00:27 45.74228 -70.05332 33943 ft 442 kts 58°
2026-04-25 00:28 45.75506 -70.01306 34054 ft 442 kts 58°
2026-04-25 00:28 45.76779 -69.97288 34176 ft 442 kts 59°
2026-04-25 00:28 45.78051 -69.93270 34284 ft 443 kts 59°
2026-04-25 00:28 45.79322 -69.89247 34385 ft 443 kts 59°
2026-04-25 00:29 45.80576 -69.85275 34546 ft 442 kts 60°
2026-04-25 00:29 45.81839 -69.81257 34644 ft 442 kts 60°
2026-04-25 00:29 45.83101 -69.77242 34780 ft 441 kts 60°
2026-04-25 00:29 45.84367 -69.73202 34891 ft 441 kts 60°
2026-04-25 00:30 45.86876 -69.65199 35012 ft 443 kts 60°
2026-04-25 00:30 45.89400 -69.57114 35047 ft 448 kts 60°
2026-04-25 00:31 45.91960 -69.48888 35054 ft 452 kts 60°
2026-04-25 00:31 45.94515 -69.40651 35060 ft 454 kts 60°
2026-04-25 00:32 45.97092 -69.32318 35056 ft 455 kts 60°
2026-04-25 00:32 45.99659 -69.23991 35060 ft 457 kts 60°
2026-04-25 00:33 46.02222 -69.15641 35059 ft 458 kts 60°
2026-04-25 00:33 46.04794 -69.07246 35065 ft 460 kts 61°
2026-04-25 00:34 46.07372 -68.98792 35070 ft 461 kts 61°
2026-04-25 00:34 46.09952 -68.90308 35076 ft 461 kts 61°
2026-04-25 00:35 46.12517 -68.81848 35070 ft 463 kts 61°
2026-04-25 00:35 46.15092 -68.73325 35058 ft 463 kts 61°
2026-04-25 00:36 46.17648 -68.64838 35048 ft 463 kts 61°
2026-04-25 00:36 46.20208 -68.56295 35063 ft 463 kts 62°
2026-04-25 00:37 46.22764 -68.47749 35054 ft 463 kts 62°
2026-04-25 00:37 46.25298 -68.39249 35066 ft 463 kts 62°
2026-04-25 00:38 46.27845 -68.30671 35100 ft 463 kts 62°
2026-04-25 00:38 46.30277 -68.22087 35080 ft 464 kts 64°
2026-04-25 00:39 46.32602 -68.13356 35064 ft 464 kts 64°
2026-04-25 00:39 46.34949 -68.04640 35049 ft 464 kts 64°
2026-04-25 00:40 46.37272 -67.95987 35022 ft 464 kts 64°
2026-04-25 00:40 46.39599 -67.87263 35007 ft 463 kts 64°
2026-04-25 00:41 46.41907 -67.78576 35018 ft 463 kts 64°
2026-04-25 00:41 46.44220 -67.69831 35035 ft 463 kts 65°
2026-04-25 00:42 46.46525 -67.61089 35025 ft 463 kts 65°
2026-04-25 00:42 46.48807 -67.52388 35019 ft 463 kts 65°
2026-04-25 00:43 46.51094 -67.43648 35011 ft 462 kts 65°
2026-04-25 00:43 46.53378 -67.34893 35012 ft 462 kts 65°
2026-04-25 00:44 46.55632 -67.26220 35016 ft 461 kts 65°
2026-04-25 00:44 46.57900 -67.17457 35026 ft 462 kts 65°
2026-04-25 00:45 46.60142 -67.08760 35018 ft 462 kts 65°
2026-04-25 00:45 46.62392 -66.99996 35015 ft 462 kts 65°
2026-04-25 00:46 46.64625 -66.91271 35016 ft 462 kts 65°
2026-04-25 00:47 46.67980 -66.78095 35021 ft 462 kts 66°
2026-04-25 00:47 46.70196 -66.69348 35015 ft 462 kts 66°
2026-04-25 00:48 46.72419 -66.60545 35024 ft 462 kts 66°
2026-04-25 00:48 46.74623 -66.51781 35013 ft 462 kts 66°
2026-04-25 00:49 46.76835 -66.42951 35010 ft 462 kts 66°
2026-04-25 00:49 46.79021 -66.34188 35011 ft 462 kts 66°
2026-04-25 00:50 46.81216 -66.25351 35014 ft 462 kts 67°
2026-04-25 00:50 46.83400 -66.16528 35015 ft 461 kts 67°
2026-04-25 00:51 46.85579 -66.07695 35033 ft 461 kts 67°
2026-04-25 00:51 46.87744 -65.98882 35023 ft 461 kts 67°
2026-04-25 00:52 46.89898 -65.90082 35015 ft 461 kts 67°
2026-04-25 00:52 46.92062 -65.81206 35018 ft 461 kts 68°
2026-04-25 00:53 46.94197 -65.72411 35014 ft 461 kts 68°
2026-04-25 00:53 46.96342 -65.63536 35012 ft 461 kts 68°
2026-04-25 00:54 46.98465 -65.54720 35008 ft 461 kts 68°
2026-04-25 00:54 47.00606 -65.45857 35010 ft 461 kts 67°
2026-04-25 00:55 47.02990 -65.37143 35005 ft 460 kts 64°
2026-04-25 00:55 47.05554 -65.28533 35005 ft 460 kts 64°
2026-04-25 00:56 47.08084 -65.19887 34998 ft 460 kts 65°
2026-04-25 00:56 47.10558 -65.11277 34997 ft 460 kts 65°
2026-04-25 00:57 47.13045 -65.02579 34993 ft 460 kts 65°
2026-04-25 00:57 47.15504 -64.93954 34991 ft 460 kts 65°
2026-04-25 00:58 47.17972 -64.85259 34995 ft 461 kts 66°
2026-04-25 00:58 47.20439 -64.76538 34984 ft 461 kts 66°
2026-04-25 00:59 47.22890 -64.67843 34983 ft 461 kts 66°
2026-04-25 00:59 47.25343 -64.59106 34984 ft 462 kts 66°
2026-04-25 01:00 47.27796 -64.50346 34978 ft 462 kts 66°
2026-04-25 01:00 47.30222 -64.41641 34978 ft 461 kts 66°
2026-04-25 01:01 47.32655 -64.32885 34975 ft 462 kts 66°
2026-04-25 01:01 47.35084 -64.24109 34977 ft 462 kts 66°
2026-04-25 01:02 47.37504 -64.15333 34969 ft 462 kts 66°
2026-04-25 01:02 47.39927 -64.06508 34966 ft 463 kts 66°
2026-04-25 01:03 47.42324 -63.97752 34966 ft 462 kts 66°
2026-04-25 01:03 47.44728 -63.88931 34968 ft 462 kts 67°
2026-04-25 01:04 47.47124 -63.80106 34961 ft 462 kts 67°
2026-04-25 01:04 47.49495 -63.71345 34956 ft 462 kts 67°
2026-04-25 01:05 47.51878 -63.62511 34952 ft 462 kts 67°
2026-04-25 01:05 47.54253 -63.53678 34951 ft 461 kts 67°
2026-04-25 01:06 47.56614 -63.44856 34942 ft 461 kts 67°
2026-04-25 01:06 47.58954 -63.36077 34942 ft 460 kts 68°
2026-04-25 01:07 47.61301 -63.27239 34945 ft 460 kts 68°
2026-04-25 01:07 47.63644 -63.18400 34937 ft 460 kts 67°
2026-04-25 01:08 47.66007 -63.09638 34939 ft 459 kts 67°
2026-04-25 01:08 47.68429 -63.00847 34939 ft 459 kts 67°
2026-04-25 01:09 47.70839 -62.92077 34938 ft 458 kts 67°
2026-04-25 01:09 47.73228 -62.83344 34931 ft 458 kts 67°
2026-04-25 01:10 47.75218 -62.76045 34927 ft 458 kts 67°
2026-04-25 01:10 47.77608 -62.67260 34922 ft 457 kts 67°
2026-04-25 01:11 47.79984 -62.58483 34922 ft 457 kts 68°
2026-04-25 01:11 47.82339 -62.49758 34919 ft 456 kts 68°
2026-04-25 01:12 47.84701 -62.40973 34910 ft 456 kts 68°
2026-04-25 01:12 47.87044 -62.32223 34926 ft 456 kts 68°
2026-04-25 01:13 47.89390 -62.23441 34905 ft 456 kts 68°
2026-04-25 01:13 47.91733 -62.14626 34903 ft 456 kts 68°
2026-04-25 01:14 47.94059 -62.05835 34905 ft 455 kts 68°
2026-04-25 01:14 47.96368 -61.97088 34899 ft 455 kts 68°
2026-04-25 01:15 47.98683 -61.88279 34890 ft 455 kts 68°
2026-04-25 01:15 48.00992 -61.79460 34890 ft 455 kts 68°
2026-04-25 01:16 48.03289 -61.70665 34892 ft 454 kts 69°
2026-04-25 01:16 48.05564 -61.61904 34895 ft 454 kts 69°
2026-04-25 01:17 48.07851 -61.53065 34880 ft 454 kts 69°
2026-04-25 01:17 48.10113 -61.44290 34881 ft 454 kts 69°
2026-04-25 01:18 48.12384 -61.35452 34873 ft 454 kts 69°
2026-04-25 01:18 48.14648 -61.26620 34870 ft 454 kts 69°
2026-04-25 01:19 48.16992 -61.17909 34880 ft 453 kts 67°
2026-04-25 01:19 48.19408 -61.09163 34866 ft 453 kts 68°
2026-04-25 01:20 48.21798 -61.00417 34867 ft 453 kts 68°
2026-04-25 01:20 48.24188 -60.91680 34868 ft 453 kts 68°
2026-04-25 01:21 48.26570 -60.82923 34853 ft 452 kts 68°
2026-04-25 01:21 48.28925 -60.74220 34853 ft 452 kts 68°
2026-04-25 01:22 48.31287 -60.65475 34853 ft 452 kts 68°
2026-04-25 01:22 48.33641 -60.56729 34853 ft 451 kts 68°
2026-04-25 01:23 48.35989 -60.47966 34839 ft 451 kts 68°
2026-04-25 01:23 48.38313 -60.39269 34839 ft 450 kts 69°
2026-04-25 01:24 48.40644 -60.30506 34842 ft 449 kts 69°
2026-04-25 01:24 48.42966 -60.21757 34835 ft 449 kts 69°
2026-04-25 01:25 48.45261 -60.13054 34828 ft 449 kts 69°
2026-04-25 01:25 48.47558 -60.04314 34828 ft 448 kts 69°
2026-04-25 01:26 48.49851 -59.95581 34816 ft 447 kts 69°
2026-04-25 01:26 48.52118 -59.86894 34795 ft 447 kts 69°
2026-04-25 01:26 48.53247 -59.82555 34221 ft 438 kts 69°
2026-04-25 01:27 48.54354 -59.78305 33637 ft 429 kts 69°
2026-04-25 01:27 48.55420 -59.74192 32992 ft 420 kts 69°
2026-04-25 01:27 48.56472 -59.70116 32362 ft 411 kts 69°
2026-04-25 01:28 48.58511 -59.62225 31208 ft 395 kts 69°
2026-04-25 01:28 48.59497 -59.58397 30655 ft 387 kts 69°
2026-04-25 01:28 48.60462 -59.54636 30140 ft 380 kts 69°
2026-04-25 01:28 48.61407 -59.50952 29589 ft 372 kts 69°
2026-04-25 01:29 48.62337 -59.47326 29002 ft 365 kts 69°
2026-04-25 01:29 48.63246 -59.43776 28431 ft 359 kts 69°
2026-04-25 01:29 48.64131 -59.40322 27880 ft 353 kts 69°
2026-04-25 01:29 48.65011 -59.36879 27362 ft 348 kts 69°
2026-04-25 01:30 48.65880 -59.33469 26854 ft 343 kts 70°
2026-04-25 01:30 48.66722 -59.30160 26371 ft 339 kts 70°
2026-04-25 01:30 48.67561 -59.26856 25898 ft 334 kts 70°
2026-04-25 01:30 48.68391 -59.23587 25438 ft 331 kts 70°
2026-04-25 01:31 48.69210 -59.20353 24995 ft 327 kts 70°
2026-04-25 01:31 48.70023 -59.17144 24559 ft 324 kts 70°
2026-04-25 01:31 48.70816 -59.14002 24140 ft 321 kts 70°
2026-04-25 01:31 48.71611 -59.10854 23719 ft 318 kts 71°
2026-04-25 01:32 48.72398 -59.07726 23289 ft 316 kts 71°
2026-04-25 01:32 48.73176 -59.04620 22815 ft 313 kts 71°
2026-04-25 01:32 48.73954 -59.01529 22352 ft 311 kts 70°
2026-04-25 01:32 48.74710 -58.98513 21906 ft 309 kts 70°
2026-04-25 01:33 48.75469 -58.95473 21470 ft 307 kts 70°
2026-04-25 01:33 48.76225 -58.92454 21043 ft 305 kts 70°
2026-04-25 01:33 48.76973 -58.89454 20624 ft 303 kts 70°
2026-04-25 01:33 48.77716 -58.86476 20216 ft 301 kts 70°
2026-04-25 01:34 48.78445 -58.83551 19815 ft 299 kts 70°
2026-04-25 01:34 48.79180 -58.80607 19437 ft 297 kts 70°
2026-04-25 01:34 48.79906 -58.77679 19050 ft 296 kts 70°
2026-04-25 01:34 48.80630 -58.74753 18667 ft 294 kts 70°
2026-04-25 01:35 48.81350 -58.71845 18292 ft 293 kts 70°
2026-04-25 01:35 48.82066 -58.68958 17898 ft 291 kts 70°
2026-04-25 01:35 48.82767 -58.66116 17478 ft 290 kts 70°
2026-04-25 01:35 48.83475 -58.63247 17046 ft 289 kts 69°
2026-04-25 01:36 48.84183 -58.60386 16639 ft 288 kts 70°
2026-04-25 01:36 48.84883 -58.57534 16233 ft 287 kts 69°
2026-04-25 01:36 48.85569 -58.54736 15846 ft 286 kts 69°
2026-04-25 01:36 48.86273 -58.51876 15440 ft 285 kts 69°
2026-04-25 01:37 48.86955 -58.49085 15069 ft 283 kts 69°
2026-04-25 01:37 48.87646 -58.46282 14701 ft 282 kts 69°
2026-04-25 01:37 48.88334 -58.43523 14351 ft 281 kts 69°
2026-04-25 01:37 48.89028 -58.40746 14007 ft 280 kts 69°
2026-04-25 01:38 48.89711 -58.37986 13652 ft 279 kts 69°
2026-04-25 01:38 48.90378 -58.35253 13293 ft 277 kts 69°
2026-04-25 01:38 48.91048 -58.32497 12897 ft 276 kts 69°
2026-04-25 01:38 48.91711 -58.29761 12507 ft 274 kts 69°
2026-04-25 01:39 48.92372 -58.27035 12133 ft 273 kts 69°
2026-04-25 01:39 48.93023 -58.24339 11753 ft 271 kts 68°
2026-04-25 01:39 48.93673 -58.21649 11372 ft 270 kts 68°
2026-04-25 01:39 48.94310 -58.19012 11049 ft 268 kts 68°
2026-04-25 01:40 48.94954 -58.16358 10690 ft 267 kts 68°
2026-04-25 01:40 48.95594 -58.13709 10333 ft 265 kts 68°
2026-04-25 01:40 48.96228 -58.11071 10000 ft 263 kts 68°
2026-04-25 01:40 48.96854 -58.08469 9680 ft 260 kts 68°
2026-04-25 01:41 48.97474 -58.05912 9342 ft 259 kts 68°
2026-04-25 01:41 48.98093 -58.03340 8976 ft 257 kts 68°
2026-04-25 01:41 48.98704 -58.00791 8612 ft 255 kts 68°
2026-04-25 01:41 48.99308 -57.98256 8251 ft 253 kts 68°
2026-04-25 01:42 48.99897 -57.95781 7894 ft 250 kts 67°
2026-04-25 01:42 49.00489 -57.93301 7567 ft 247 kts 67°
2026-04-25 01:42 49.01078 -57.90839 7234 ft 244 kts 67°
2026-04-25 01:42 49.01648 -57.88445 6914 ft 241 kts 67°
2026-04-25 01:43 49.02221 -57.86056 6596 ft 238 kts 67°
2026-04-25 01:43 49.02782 -57.83690 6292 ft 235 kts 66°
2026-04-25 01:43 49.03324 -57.81400 5975 ft 231 kts 66°
2026-04-25 01:43 49.03865 -57.79109 5659 ft 227 kts 66°
2026-04-25 01:44 49.04382 -57.76892 5354 ft 217 kts 67°
2026-04-25 01:44 49.04873 -57.74763 5064 ft 208 kts 66°
2026-04-25 01:44 49.05350 -57.72755 4812 ft 200 kts 65°
2026-04-25 01:44 49.05817 -57.70787 4576 ft 193 kts 65°
2026-04-25 01:45 49.06278 -57.68890 4292 ft 187 kts 65°
2026-04-25 01:45 49.06715 -57.67045 4023 ft 183 kts 65°
2026-04-25 01:45 49.07147 -57.65247 3793 ft 178 kts 65°
2026-04-25 01:45 49.07555 -57.63518 3588 ft 173 kts 65°
2026-04-25 01:46 49.07958 -57.61801 3391 ft 171 kts 65°
2026-04-25 01:46 49.08359 -57.60078 3412 ft 174 kts 65°
2026-04-25 01:46 49.08929 -57.58415 3187 ft 181 kts 46°
2026-04-25 01:46 49.09777 -57.57002 2957 ft 179 kts 44°
2026-04-25 01:47 49.10643 -57.55674 2708 ft 177 kts 43°
2026-04-25 01:47 49.11493 -57.54365 2493 ft 167 kts 43°
2026-04-25 01:47 49.12277 -57.53129 2270 ft 157 kts 44°
2026-04-25 01:47 49.13016 -57.51958 2021 ft 147 kts 44°
2026-04-25 01:48 49.13697 -57.50887 1771 ft 134 kts 43°
2026-04-25 01:48 49.14294 -57.49946 1533 ft 117 kts 43°
2026-04-25 01:48 49.14874 -57.49052 1204 ft 126 kts 43°
2026-04-25 01:48 49.15504 -57.48082 1207 ft 132 kts 43°
2026-04-25 01:49 49.16166 -57.47048 1138 ft 141 kts 44°
2026-04-25 01:49 49.16818 -57.45969 1233 ft 138 kts 45°
2026-04-25 01:49 49.17486 -57.44887 904 ft 140 kts 44°
2026-04-25 01:49 49.18183 -57.43826 639 ft 139 kts 44°
2026-04-25 01:50 49.18842 -57.42737 437 ft 141 kts 46°
2026-04-25 01:50 49.19511 -57.41689 277 ft 136 kts 45°
2026-04-25 01:50 49.20149 -57.40658 100 ft 131 kts 44°
2026-04-25 01:50 49.20747 -57.39714 49 ft 104 kts 47°
2026-04-25 01:51 49.20972 -57.39351 52 ft 13 kts 46°
2026-04-25 01:51 49.21036 -57.39292 54 ft 10 kts 342°
2026-04-25 01:51 49.21076 -57.39362 55 ft 8 kts 308°
2026-04-25 01:51 49.21113 -57.39428 56 ft 11 kts 305°
2026-04-25 01:52 49.21079 -57.39542 53 ft 16 kts 225°
2026-04-25 01:52 49.21010 -57.39656 55 ft 13 kts 227°
2026-04-25 01:52 49.20948 -57.39754 56 ft 9 kts 225°
2026-04-25 01:52 49.20919 -57.39833 56 ft 8 kts 295°
2026-04-25 01:53 49.20955 -57.39853 54 ft 4 kts 359°
2026-04-25 01:53 49.20970 -57.39852 56 ft 0 kts